FW9486 Weather Reports


Display with metric or nautical units.
time (UTC)temp
F
wind
direction
speed
MPH
gust
MPH
rain 1hr
in
rain 24hr
in
rain mn
in
humidity
%
barometer
mb
20260509120039 35 0 0.0 0.0 0.00 0.00 0.00 79 1017.2
20260509114539 36 3 0.0 2.0 0.00 0.00 0.00 79 1016.9
20260509113040 36 0 0.0 1.0 0.00 0.00 0.00 78 1016.9
20260509111546 38 0 0.0 0.0 0.00 0.00 0.00 74 1016.7
20260509110038 38 14 0.0 1.0 0.00 0.00 0.00 73 1016.7
20260509104537 38 0 0.0 1.0 0.00 0.00 0.00 73 1016.6
20260509103048 38 0 0.0 1.0 0.00 0.00 0.00 74 1016.5
20260509101536 40 20 0.0 1.0 0.00 0.00 0.00 69 1016.7
20260509100058 40 0 0.0 1.0 0.00 0.00 0.00 70 1016.4
20260509094548 40 0 0.0 1.0 0.00 0.00 0.00 69 1016.2
20260509093043 41 0 0.0 1.0 0.00 0.00 0.00 67 1016.1
20260509091538 43 0 0.0 2.0 0.00 0.00 0.00 64 1016.1
20260509090035 42 34 0.0 1.0 0.00 0.00 0.00 65 1016.0
20260509084535 43 0 0.0 0.0 0.00 0.00 0.00 63 1016.0
20260509083043 44 0 0.0 1.0 0.00 0.00 0.00 58 1015.9
20260509081536 44 46 0.0 2.0 0.00 0.00 0.00 61 1015.8
20260509080044 45 6 0.0 1.0 0.00 0.00 0.00 57 1015.8
20260509074541 46 0 0.0 2.0 0.00 0.00 0.00 57 1015.7
20260509073040 46 0 0.0 3.0 0.00 0.00 0.00 57 1015.6
20260509071533 50 0 0.0 1.0 0.00 0.00 0.00 47 1015.4
20260509070040 48 15 0.0 3.0 0.00 0.00 0.00 49 1015.3
20260509064535 50 84 0.0 2.0 0.00 0.00 0.00 50 1015.2
20260509063039 50 18 0.0 3.0 0.00 0.00 0.00 49 1015.1
20260509061542 50 4 0.0 2.0 0.00 0.00 0.00 51 1015.0
20260509060034 51 0 0.0 2.0 0.00 0.00 0.00 49 1015.0
20260509054550 52 63 0.0 1.0 0.00 0.00 0.00 47 1014.7
20260509053051 53 360 0.0 3.0 0.00 0.00 0.00 42 1014.6
20260509051535 54 355 0.0 2.0 0.00 0.00 0.00 44 1014.2
20260509050036 55 0 0.0 2.0 0.00 0.00 0.00 41 1014.0
20260509044538 56 329 0.0 5.0 0.00 0.00 0.00 41 1014.0
20260509043036 55 309 0.0 2.0 0.00 0.00 0.00 41 1013.8
20260509041536 56 0 0.0 2.0 0.00 0.00 0.00 41 1013.8
20260509040038 56 0 0.0 2.0 0.00 0.00 0.00 42 1013.5
20260509034537 57 0 0.0 2.0 0.00 0.00 0.00 40 1013.3
20260509033110 58 0 0.0 1.0 0.00 0.00 0.00 37 1013.1
20260509031541 59 0 0.0 2.0 0.00 0.00 0.00 37 1012.9
20260509030035 60 0 0.0 1.0 0.00 0.00 0.00 34 1012.6
20260509024536 61 0 0.0 1.0 0.00 0.00 0.00 32 1012.2
20260509023035 63 69 0.0 2.0 0.00 0.00 0.00 31 1012.2
20260509021534 64 0 0.0 3.0 0.00 0.00 0.00 28 1011.9
20260509020038 64 298 1.0 4.0 0.00 0.00 0.00 31 1011.7
20260509014536 65 7 0.0 1.0 0.00 0.00 0.00 26 1011.6
20260509013035 66 0 0.0 5.0 0.00 0.00 0.00 24 1011.6
20260509011535 68 308 2.0 5.0 0.00 0.00 0.00 24 1011.6
20260509010040 69 39 1.0 7.0 0.00 0.00 0.00 22 1011.7
20260509004540 70 282 4.0 9.0 0.00 0.00 0.00 21 1011.8
20260509003040 70 302 3.0 8.0 0.00 0.00 0.00 20 1012.1
20260509001535 69 212 5.0 9.0 0.00 0.00 0.00 23 1012.1
20260509000034 69 307 4.0 11.0 0.00 0.00 0.00 23 1012.2
20260508234545 68 295 2.0 6.0 0.00 0.00 0.00 25 1012.0
20260508233037 69 314 2.0 6.0 0.00 0.00 0.00 24 1012.1
20260508231545 69 352 0.0 4.0 0.00 0.00 0.00 26 1012.0
20260508230044 69 115 2.0 7.0 0.00 0.00 0.00 25 1012.0
20260508224535 69 178 1.0 6.0 0.00 0.00 0.00 30 1012.0
20260508223044 68 102 0.0 7.0 0.00 0.00 0.00 27 1012.2
20260508221538 67 222 2.0 7.0 0.00 0.00 0.00 26 1012.5
20260508220039 67 319 3.0 6.0 0.00 0.00 0.00 22 1012.6
20260508214545 68 283 4.0 9.0 0.00 0.00 0.00 23 1012.6
20260508213034 68 297 3.0 11.0 0.00 0.00 0.00 25 1012.8
20260508211542 66 312 4.0 9.0 0.00 0.00 0.00 25 1012.9
20260508210038 67 230 4.0 11.0 0.00 0.00 0.00 28 1013.0
20260508204537 66 247 4.0 9.0 0.00 0.00 0.00 28 1013.0
20260508203035 67 311 4.0 9.0 0.00 0.00 0.00 29 1012.9
20260508201536 67 310 3.0 11.0 0.00 0.00 0.00 30 1013.0
20260508200041 67 292 3.0 14.0 0.00 0.00 0.00 31 1013.0
20260508194537 67 279 3.0 11.0 0.00 0.00 0.00 25 1012.9
20260508193045 67 299 4.0 10.0 0.00 0.00 0.00 24 1012.9
20260508191539 68 335 3.0 8.0 0.00 0.00 0.00 27 1012.8
20260508190036 67 263 6.0 11.0 0.00 0.00 0.00 26 1013.1
20260508184544 67 299 3.0 7.0 0.00 0.00 0.00 27 1013.0
20260508183038 66 0 2.0 5.0 0.00 0.00 0.00 37 1013.0
20260508181537 64 115 3.0 5.0 0.00 0.00 0.00 43 1013.1
20260508180037 64 160 1.0 5.0 0.00 0.00 0.00 42 1013.2
20260508174539 63 143 1.0 4.0 0.00 0.00 0.00 45 1013.3
20260508173039 61 181 1.0 3.0 0.00 0.00 0.00 51 1013.3
20260508171538 59 86 0.0 2.0 0.00 0.00 0.00 56 1013.1
20260508170037 58 0 0.0 2.0 0.00 0.00 0.00 53 1013.2
20260508164535 58 0 1.0 3.0 0.00 0.00 0.00 57 1013.2
20260508163038 57 157 1.0 4.0 0.00 0.00 0.00 60 1013.2
20260508161535 55 0 0.0 3.0 0.00 0.00 0.00 62 1013.3
20260508160037 54 124 1.0 4.0 0.00 0.00 0.00 64 1013.3
20260508154537 52 124 1.0 2.0 0.00 0.00 0.00 65 1013.4
20260508153037 51 125 1.0 2.0 0.00 0.00 0.00 69 1013.4
20260508151535 50 117 1.0 2.0 0.00 0.00 0.00 70 1013.5
20260508150035 48 125 0.0 2.0 0.00 0.00 0.00 73 1013.5
20260508144538 47 139 1.0 2.0 0.00 0.00 0.00 73 1013.4
20260508143036 46 0 0.0 1.0 0.00 0.00 0.00 76 1013.5
20260508141537 43 0 0.0 1.0 0.00 0.00 0.00 80 1013.4
20260508140037 42 0 0.0 1.0 0.00 0.00 0.00 80 1013.5
20260508134536 43 0 0.0 0.0 0.00 0.00 0.00 81 1013.5
20260508133037 39 0 0.0 0.0 0.00 0.00 0.00 89 1013.3
20260508131541 37 0 0.0 0.0 0.00 0.00 0.00 90 1013.3
20260508130036 36 0 0.0 0.0 0.00 0.00 0.00 90 1013.2
20260508124535 37 0 0.0 0.0 0.00 0.00 0.00 89 1013.1
20260508123035 37 0 0.0 0.0 0.00 0.00 0.00 89 1013.0
20260508121543 36 0 0.0 0.0 0.00 0.00 0.00 89 1013.0